This is the latest recevied weather packets stored in our database for station/object W3EJE-13. If no packets are shown the sender has not sent any weather packets the latest 10 day(s).
| Time | Temp. | Humidity | Pressure | Rain* | Wind** | Luminosity | Snow |
|---|---|---|---|---|---|---|---|
| 1777829692 | 10° C | 55% | 1017.7 hPa | 0 mm | - | 134 W/m² | - |
| 1777829389 | 10° C | 52% | 1017.6 hPa | 0 mm | - | 781 W/m² | - |
| 1777829086 | 10° C | 52% | 1017.7 hPa | 0 mm | - | 759 W/m² | - |
| 1777828783 | 10° C | 56% | 1017.7 hPa | 0 mm | - | 762 W/m² | - |
| 1777828479 | 9.44° C | 58% | 1017.7 hPa | 0 mm | - | 278 W/m² | - |
| 1777828177 | 9.44° C | 56% | 1017.6 hPa | 0 mm | - | 616 W/m² | - |
| 1777827873 | 9.44° C | 56% | 1017.6 hPa | 0 mm | - | 746 W/m² | - |
| 1777827570 | 9.44° C | 57% | 1017.7 hPa | 0 mm | - | 804 W/m² | - |
| 1777827268 | 9.44° C | 57% | 1017.9 hPa | 0 mm | - | 711 W/m² | - |
| 1777826963 | 8.89° C | 57% | 1017.8 hPa | 0 mm | - | 638 W/m² | - |
| 1777826661 | 8.89° C | 57% | 1017.9 hPa | 0 mm | - | 727 W/m² | - |
| 1777826357 | 8.89° C | 58% | 1017.9 hPa | 0 mm | - | 729 W/m² | - |
| 1777826055 | 8.89° C | 59% | 1017.8 hPa | 0 mm | - | 726 W/m² | - |
| 1777825751 | 7.78° C | 57% | 1018.2 hPa | 0 mm | - | 707 W/m² | - |
| 1777825450 | 8.89° C | 56% | 1018 hPa | 0 mm | - | 220 W/m² | - |
| 1777825146 | 8.33° C | 59% | 1018.1 hPa | 0 mm | - | 711 W/m² | - |
| 1777824843 | 8.33° C | 58% | 1018.4 hPa | 0 mm | - | 702 W/m² | - |
| 1777824539 | 8.89° C | 59% | 1018.2 hPa | 0 mm | - | 704 W/m² | - |
| 1777824235 | 8.33° C | 58% | 1018.2 hPa | 0 mm | - | 737 W/m² | - |
| 1777823931 | 7.78° C | 59% | 1018.1 hPa | 0 mm | - | 709 W/m² | - |
| 1777823629 | 7.78° C | 58% | 1018.2 hPa | 0 mm | - | 708 W/m² | - |
| 1777823325 | 8.33° C | 55% | 1018.4 hPa | 0 mm | - | 707 W/m² | - |
| 1777823023 | 8.33° C | 56% | 1018.3 hPa | 0 mm | - | 692 W/m² | - |
| 1777822721 | 7.78° C | 61% | 1018.4 hPa | 0 mm | - | 695 W/m² | - |
| 1777822419 | 7.78° C | 57% | 1018.4 hPa | 0 mm | - | 698 W/m² | - |
* Rain latest hour (hover to see other rain measurements)
** Current wind speed in m/s (hover to see current wind gust speed)